EN

Hourly Weather Allah-Yun

Today, 26 January, Tuesday

Time Temperature Precipitation Wind Pressure Humidity
00:00 -43°C° 0 mm 0 mps 719 mmHg 99%
01:00 -43°C° 0 mm 0 mps 719 mmHg 99%
02:00 -43°C° 0 mm 0 mps 719 mmHg 99%
03:00 -42°C° 0 mm 0 mps 718 mmHg 98%
04:00 -41°C° 0 mm 0 mps 718 mmHg 98%
05:00 -42°C° 0 mm 1 mps 718 mmHg 98%
06:00 -41°C° 0 mm 1 mps 718 mmHg 97%
07:00 -40°C° 0 mm 1 mps 717 mmHg 96%
08:00 -40°C° 0 mm 1 mps 717 mmHg 95%
09:00 -39°C° 0 mm 1 mps 717 mmHg 94%
10:00 -37°C° 0 mm 1 mps 716 mmHg 92%
11:00 -34°C° 0 mm 1 mps 716 mmHg 90%
12:00 -32°C° 0 mm 1 mps 716 mmHg 88%
13:00 -33°C° 0 mm 1 mps 716 mmHg 87%
14:00 -33°C° 0 mm 1 mps 715 mmHg 85%
15:00 -33°C° 0 mm 1 mps 715 mmHg 84%
16:00 -33°C° 0 mm 1 mps 714 mmHg 81%
17:00 -33°C° 0 mm 1 mps 714 mmHg 77%
18:00 -33°C° 0 mm 1 mps 714 mmHg 74%
19:00 -33°C° 0 mm 1 mps 713 mmHg 72%
20:00 -33°C° 0 mm 1 mps 713 mmHg 69%
21:00 -33°C° 0 mm 1 mps 713 mmHg 67%
22:00 -32°C° 0 mm 1 mps 713 mmHg 65%
23:00 -32°C° 0 mm 1 mps 712 mmHg 62%

Tomorrow, 27 January, Wednesday

Time Temperature Precipitation Wind Pressure Humidity
00:00 -32°C° 0 mm 1 mps 712 mmHg 60%
01:00 -32°C° 0 mm 1 mps 712 mmHg 58%
02:00 -32°C° 0 mm 1 mps 712 mmHg 57%
03:00 -31°C° 0 mm 1 mps 712 mmHg 55%
04:00 -31°C° 0 mm 1 mps 712 mmHg 54%
05:00 -31°C° 0 mm 1 mps 712 mmHg 53%
06:00 -31°C° 0 mm 1 mps 712 mmHg 51%
07:00 -31°C° 0 mm 1 mps 712 mmHg 51%
08:00 -30°C° 0 mm 1 mps 712 mmHg 50%
09:00 -30°C° 0 mm 1 mps 712 mmHg 50%
10:00 -29°C° 0 mm 1 mps 712 mmHg 54%
11:00 -27°C° 0 mm 1 mps 712 mmHg 59%
12:00 -24°C° 0 mm 1 mps 712 mmHg 63%
13:00 -25°C° 0 mm 1 mps 712 mmHg 61%
14:00 -25°C° 0 mm 1 mps 712 mmHg 60%
15:00 -27°C° 0 mm 1 mps 712 mmHg 59%
16:00 -27°C° 0 mm 1 mps 712 mmHg 58%
17:00 -27°C° 0 mm 1 mps 712 mmHg 58%
18:00 -27°C° 0 mm 1 mps 712 mmHg 57%
19:00 -27°C° 0 mm 0 mps 712 mmHg 59%
20:00 -27°C° 0 mm 0 mps 712 mmHg 60%
21:00 -27°C° 0 mm 0 mps 712 mmHg 62%
22:00 -28°C° 0 mm 0 mps 712 mmHg 62%
23:00 -29°C° 0 mm 0 mps 712 mmHg 62%

Day after tomorrow, 28 January, Thursday

Time Temperature Precipitation Wind Pressure Humidity
00:00 -30°C° 0 mm 0 mps 712 mmHg 62%
01:00 -30°C° 0 mm 0 mps 711 mmHg 64%
02:00 -31°C° 0 mm 0 mps 711 mmHg 65%
03:00 -31°C° 0 mm 0 mps 711 mmHg 67%
04:00 -32°C° 0 mm 0 mps 711 mmHg 69%
05:00 -33°C° 0 mm 1 mps 711 mmHg 70%
06:00 -33°C° 0 mm 1 mps 711 mmHg 72%
07:00 -34°C° 0 mm 1 mps 711 mmHg 74%
08:00 -34°C° 0 mm 1 mps 711 mmHg 75%
09:00 -33°C° 0 mm 0 mps 710 mmHg 76%
10:00 -33°C° 0 mm 1 mps 710 mmHg 79%
11:00 -32°C° 0 mm 1 mps 710 mmHg 82%
12:00 -30°C° 0 mm 1 mps 710 mmHg 84%
13:00 -31°C° 0 mm 1 mps 710 mmHg 86%
14:00 -32°C° 0 mm 1 mps 710 mmHg 87%
15:00 -33°C° 0 mm 1 mps 709 mmHg 89%
16:00 -34°C° 0 mm 1 mps 709 mmHg 90%
17:00 -35°C° 0 mm 1 mps 709 mmHg 91%
18:00 -35°C° 0 mm 0 mps 709 mmHg 92%
19:00 -35°C° 0 mm 0 mps 709 mmHg 92%
20:00 -35°C° 0 mm 0 mps 709 mmHg 93%
21:00 -36°C° 0 mm 0 mps 709 mmHg 93%
22:00 -36°C° 0 mm 0 mps 708 mmHg 93%
23:00 -36°C° 0 mm 0 mps 708 mmHg 93%

29 January, Friday

Time Temperature Precipitation Wind Pressure Humidity
00:00 -36°C° 0 mm 0 mps 708 mmHg 94%
01:00 -36°C° 0 mm 0 mps 708 mmHg 95%
02:00 -36°C° 0 mm 0 mps 708 mmHg 95%
03:00 -36°C° 0 mm 0 mps 708 mmHg 96%
04:00 -36°C° 0 mm 0 mps 708 mmHg 97%
05:00 -36°C° 0 mm 0 mps 708 mmHg 97%
06:00 -36°C° 0 mm 0 mps 708 mmHg 98%
07:00 -35°C° 0 mm 0 mps 708 mmHg 98%
08:00 -35°C° 0 mm 0 mps 708 mmHg 98%
09:00 -35°C° 0 mm 0 mps 708 mmHg 98%
10:00 -33°C° 0 mm 0 mps 709 mmHg 96%
11:00 -31°C° 0 mm 0 mps 709 mmHg 95%
12:00 -29°C° 0 mm 0 mps 709 mmHg 94%
13:00 -30°C° 0 mm 0 mps 709 mmHg 94%
14:00 -30°C° 0 mm 0 mps 709 mmHg 94%
15:00 -30°C° 0 mm 0 mps 709 mmHg 94%
16:00 -31°C° 0 mm 0 mps 709 mmHg 94%
17:00 -31°C° 0 mm 0 mps 709 mmHg 93%
18:00 -32°C° 0 mm 0 mps 710 mmHg 92%
19:00 -32°C° 0 mm 0 mps 710 mmHg 91%
20:00 -31°C° 0 mm 0 mps 710 mmHg 90%
21:00 -31°C° 0 mm 0 mps 710 mmHg 89%
22:00 -31°C° 0 mm 0 mps 710 mmHg 88%
23:00 -31°C° 0 mm 0 mps 710 mmHg 88%

30 January, Saturday

Time Temperature Precipitation Wind Pressure Humidity
00:00 -32°C° 0 mm 0 mps 711 mmHg 88%
01:00 -31°C° 0 mm 0 mps 711 mmHg 87%
02:00 -31°C° 0 mm 0 mps 711 mmHg 87%
03:00 -31°C° 0 mm 0 mps 710 mmHg 86%
04:00 -31°C° 0 mm 0 mps 710 mmHg 85%
05:00 -31°C° 0 mm 0 mps 710 mmHg 84%
06:00 -31°C° 0 mm 0 mps 710 mmHg 84%
07:00 -31°C° 0 mm 1 mps 710 mmHg 83%
08:00 -31°C° 0 mm 1 mps 710 mmHg 83%
09:00 -30°C° 0 mm 1 mps 710 mmHg 82%
10:00 -29°C° 0 mm 1 mps 710 mmHg 82%
11:00 -27°C° 0 mm 1 mps 710 mmHg 83%
12:00 -24°C° 0 mm 1 mps 710 mmHg 83%
13:00 -25°C° 0 mm 1 mps 710 mmHg 84%
14:00 -25°C° 0 mm 1 mps 709 mmHg 84%
15:00 -27°C° 0 mm 1 mps 709 mmHg 85%
16:00 -28°C° 0 mm 1 mps 708 mmHg 84%
17:00 -28°C° 0 mm 1 mps 708 mmHg 83%
18:00 -29°C° 0 mm 1 mps 708 mmHg 82%
19:00 -29°C° 0 mm 1 mps 708 mmHg 82%
20:00 -29°C° 0 mm 1 mps 707 mmHg 82%
21:00 -29°C° 0 mm 1 mps 707 mmHg 81%
22:00 -29°C° 0 mm 1 mps 707 mmHg 82%
23:00 -30°C° 0 mm 1 mps 707 mmHg 82%

31 January, Sunday

Time Temperature Precipitation Wind Pressure Humidity
00:00 -30°C° 0 mm 1 mps 706 mmHg 83%
01:00 -30°C° 0 mm 1 mps 706 mmHg 83%
02:00 -30°C° 0 mm 1 mps 706 mmHg 83%
03:00 -30°C° 0 mm 1 mps 706 mmHg 83%
04:00 -30°C° 0 mm 1 mps 706 mmHg 83%
05:00 -30°C° 0 mm 1 mps 705 mmHg 84%
06:00 -31°C° 0 mm 1 mps 705 mmHg 84%
07:00 -31°C° 0 mm 1 mps 705 mmHg 85%
08:00 -31°C° 0 mm 1 mps 705 mmHg 85%
09:00 -31°C° 0 mm 1 mps 705 mmHg 85%
10:00 -29°C° 0 mm 1 mps 705 mmHg 86%
11:00 -28°C° 0 mm 1 mps 705 mmHg 86%
12:00 -27°C° 0 mm 1 mps 705 mmHg 86%
13:00 -27°C° 0 mm 1 mps 704 mmHg 88%
14:00 -28°C° 0 mm 1 mps 704 mmHg 89%
15:00 -29°C° 0 mm 1 mps 704 mmHg 91%
16:00 -31°C° 0 mm 1 mps 703 mmHg 92%
17:00 -32°C° 0 mm 1 mps 703 mmHg 93%
18:00 -34°C° 0 mm 1 mps 703 mmHg 94%
19:00 -34°C° 0 mm 1 mps 702 mmHg 95%
20:00 -35°C° 0 mm 1 mps 702 mmHg 96%
21:00 -36°C° 0 mm 1 mps 702 mmHg 97%
22:00 -36°C° 0 mm 1 mps 701 mmHg 97%
23:00 -37°C° 0 mm 1 mps 701 mmHg 98%
Show more